sat.trackr.live / text

‹ back to catalog

STARLINK-34271

NORAD 64384 · 2025-127Q

PAYLOAD ACTIVE UNKNOWN

§ Identity

Operator
Country
US
Launch date
2025-06-13
Launch site
AFETR
Launch vehicle
Mass (kg)
RCS (m²)

Purposes: comms

External: N2YO · Heavens-Above · Gunter

§ Orbital elements

Epoch: 2026-05-25T04:28:58.435680Z

Period
94.27 min
Inclination
42.9992°
Eccentricity
0.0000691
Mean motion
15.27596132 rev/d
Perigee alt
482.5 km
Apogee alt
483.5 km
Semi-major
6,861.1 km
B*
6.7355e-4
RAAN
107.9954°
Arg perigee
255.7626°
Mean anomaly
104.3149°
Rev number
5,416

§ Raw data

STARLINK-342711 64384U 25127Q   26145.18678745  .00018328  00000+0  67355-3 0  99962 64384  42.9992 107.9954 0000691 255.7626 104.3149 15.27596132 54165

JSON: /api/v1/satellites/64384 · /tle

For live sub-satellite position, see the globe view (requires WebGL).

§ Visibility from observer

Set your observer location to see the next 7 days of passes ≥ 10°. The values pass through the URL so the page stays shareable.

No JS? Fill the form by hand. The geolocation button needs JavaScript.